Location: Buch
(49.7331°N, 12.1098°E)
Time: 09:25:29
(UTC+00:00)

COSMOS 2406 - Pass Details

Date: 12 May 2021
Orbit: 845 x 862 km, 71.0° (Epoch: 13 June)

Event Time Altitude Azimuth Distance (km) Brightness Sun altitude
Rises 19:46:15 0° 331° (NNW) 3,416 8.0 -8.7°
Reaches altitude 10° 19:48:43 10° 333° (NNW) 2,477 7.0 -9.0°
Maximum altitude 19:54:25 79° 60° (ENE) 867 3.2 -9.6°
Enters shadow 19:59:38 12° 147° (SSE) 2,297 4.8 -10.2°
